This is the latest recevied weather packets stored in our database for station/object SV2BZQ-2. If no packets are shown the sender has not sent any weather packets the latest 1 day(s).
| Time | Temp. | Humidity | Pressure | Rain* | Wind** | Luminosity | Snow |
|---|---|---|---|---|---|---|---|
| 1778075882 | 24.44° C | 60% | 1012.8 hPa | 0 mm | - | 568 W/m² | - |
| 1778075525 | 25° C | 60% | 1012.8 hPa | 0 mm | - | 578 W/m² | - |
| 1778075295 | 25° C | 59% | 1012.8 hPa | 0 mm | - | 585 W/m² | - |
| 1778075180 | 25° C | 58% | 1012.8 hPa | 0 mm | - | 589 W/m² | - |
| 1778074959 | 25.56° C | 57% | 1012.8 hPa | 0 mm | - | 599 W/m² | - |
| 1778074639 | 25.56° C | 56% | 1012.8 hPa | 0 mm | - | 617 W/m² | - |
| 1778074129 | 25.56° C | 58% | 1012.8 hPa | 0 mm | - | 629 W/m² | - |
| 1778073737 | 25.56° C | 57% | 1012.8 hPa | 0 mm | - | 649 W/m² | - |
| 1778072907 | 26.11° C | 55% | 1013.1 hPa | 0 mm | - | 686 W/m² | - |
| 1778072560 | 25.56° C | 57% | 1013 hPa | 0 mm | - | 691 W/m² | - |
| 1778072317 | 25.56° C | 55% | 1013.1 hPa | 0 mm | - | 689 W/m² | - |
| 1778071999 | 25.56° C | 55% | 1013.1 hPa | 0 mm | - | 703 W/m² | - |
| 1778071120 | 26.11° C | 53% | 1013.1 hPa | 0 mm | - | 738 W/m² | - |
| 1778070517 | 26.11° C | 53% | 1013.2 hPa | 0 mm | - | 759 W/m² | - |
| 1778070004 | 26.11° C | 55% | 1013.2 hPa | 0 mm | - | 773 W/m² | - |
| 1778068956 | 26.67° C | 52% | 1013.3 hPa | 0 mm | - | 803 W/m² | - |
| 1778068510 | 26.67° C | 51% | 1013.4 hPa | 0 mm | - | 809 W/m² | - |
| 1778068231 | 26.67° C | 50% | 1013.4 hPa | 0 mm | - | 814 W/m² | - |
| 1778068126 | 26.67° C | 51% | 1013.4 hPa | 0 mm | - | 817 W/m² | - |
| 1778067873 | 26.67° C | 50% | 1013.5 hPa | 0 mm | - | 817 W/m² | - |
| 1778067567 | 26.67° C | 49% | 1013.5 hPa | 0 mm | - | 824 W/m² | - |
| 1778067085 | 26.67° C | 50% | 1013.5 hPa | 0 mm | - | 831 W/m² | - |
| 1778066827 | 26.67° C | 50% | 1013.5 hPa | 0 mm | - | 837 W/m² | - |
| 1778066718 | 26.67° C | 50% | 1013.5 hPa | 0 mm | - | 837 W/m² | - |
| 1778066611 | 26.67° C | 49% | 1013.5 hPa | 0 mm | - | 838 W/m² | - |
* Rain latest hour (hover to see other rain measurements)
** Current wind speed in m/s (hover to see current wind gust speed)